Probability
0 0 0 0 0 0 0 0 0 0 0 0 0 0 0 0 0 0 0 0 0 0 0 0 0 0 0 0 0 0 0 0 0 0 0 0 0 0 0 0 0 0 0 0
0 0 0 0 0 0 0 0 0 0 0 0 0 0 0 0 0 0 0 0 0 0 0 0 0 0 0 0 0 0 0 0 0 0 0 0 0 0 0 0 0 0 0 0
0 0 0 0 0 0 0 0 0 0 0 0 0 0 0 0 0 0 0 0 0 0 0 0 0 0 0 0 0 0 0 0 0 0 0 0 0 0 0 0 0 0 0 0
0 0 0 0 0 0 0 0 0 0 0 0 0 0 0 0 0 0 0 0 0 0 0 0 0 0 0 0 0 0 0 0 0 0 0 0 0 0 0 0 0 0 0 0
0 0 0 0 0 0 0 0 0 0 0 0 0 0 0 0 0 0 0 0 0 0 0 0 0 0 0 0 0 0 0 0 0 0 0 0 0 0 0 0 0 0 0 0
0 0 0 0 0 0 0 0 0 0 0 0 0 0 0 0 0 0 0 0 0 0 0 0 0 0 0 0 0 0 0 0 0 0 0 0 0 0 0 0 0 0 0 0
0 0 0 0 0 0 0 0 0 0 0 0 0 0 0 0 0 0 0 0 0 0 0 0 0 0 0 0 0 0 0 0 0 0 0 0 0 0 0 0 0 0 0 0
0 0 0 0 0 0 0 0 0 0 0 0 0 0 0 0 0 0 0 0 0 0 0 0 0 0 0 0 0 0 0 0 0 0 0 0 0 0 0 0 0 0 0 0
0 0 0 0 0 0 0 0 0 0 0 0 0 0 0 0 0 0 0 0 0 0 0 0 0 0 0 0 0 0 0 0 0 0 0 0 0 0 0 0 0 0 0 0
0 0 0 0 0 0 0 0 0 0 0 0 0 0 0 0 0 0 0 0 0 0 0 0 0 0 0 0 0 0 0 0 0 0 0 0 0 0 0 0 0 0 0 0
0 0 0 0 0 0 0 0 0 0 0 0 0 0 0 0 0 0 0 0 0 0 0 0 0 0 0 0 0 0 0 0 0 0 0 0 0 0 0 0 0 0 0 0
0 0 0 0 0 0 0 0 0 0 0 0 0 0 0 0 0 0 0 0 0 0 0 0 0 0 0 0 0 0 0 0 0 0 0 0 0 0 0 0 0 0 0 0
0 0 0 0 0 0 0 0 0 0 0 0 0 0 0 0 0 0 0 0 0 0 0 0 0 0 0 0 0 0 0 0 0 0 0 0 0 0 0 0 0 0 0 0
0 0 0 0 0 0 0 0 0 0 0 0 0 0 0 0 0 0 0 0 0 0 0 0 0 0 0 0 0 0 0 0 0 0 0 0 0 0 0 0 0 0 0 0
0 0 0 0 0 0 0 0 0 0 0 0 0 0 0 0 0 0 0 0 0 0 0 0 0 0 0 0 0 0 0 0 0 0 0 0 0 0 0 0 0 0 0 0
0 0 0 0 0 0 0 0 0 0 0 0 0 0 0 0 0 0 0 0 0 0 0 0 0 0 0 0 0 0 0 0 0 0 0 0 0 0 0 0 0 0 0 0
0 0 0 0 0 0 0 0 0 0 0 0 0 0 0 0 0 0 0 0 0 0 0 0 0 0 0 0 0 0 0 0 0 0 0 0 0 0 0 0 0 0 0 0
0 0 0 0 0 0 0 0 0 0 0 0 0 0 0 0 0 0 0 0 0 0 0 0 0 0 0 0 0 0 0 0 0 0 0 0 0 0 0 0 0 0 0 0
0 0 0 0 0 0 0 0 0 0 0 0 0 0 0 0 0 0 0 0 0 0 0 0 0 0 0 0 0 0 0 0 0 0 0 0 0 0 0 0 0 0 0 0
0 0 0 0 0 0 0 0 0 0 0 0 0 0 0 0 0 0 0 0 0 0 0 0 0 0 0 0 0 0 0 0 0 0 0 0 0 0 0 0 0 0 0 0
0 0 0 0 0 0 0 0 0 0 0 0 0 0 0 0 0 0 0 0 0 0 0 0 0 0 0 0 0 0 0 0 0 0 0 0 0 0 0 0 0 0 0 0
0 0 0 0 0 0 0 0 0 0 0 0 0 0 0 0 0 0 0 0 0 0 0 0 0 0 0 0 0 0 0 0 0 0 0 0 0 0 0 0 0 0 0 0
0 0 0 0 0 0 0 0 0 0 0 0 0 0 0 0 0 0 0 0 0 0 0 0 0 0 0 0 0 0 0 0 0 0 0 0 0 0 0 0 0 0 0 0
0 0 0 0 0 0 0 0 0 0 0 0 0 0 0 0 0 0 0 0 0 0 0 0 0 0 0 0 0 0 0 0 0 0 0 0 0 0 0 0 0 0 0 0
0 0 0 0 0 0 0 0 0 0 0 0 0 0 0 0 0 0 0 0 0 0 0 0 0 0 0 0 0 0 0 0 0 0 0 0 0 0 0 0 0 0 0 0
0 0 0 0 0 0 0 0 0 0 0 0 0 0 0 0 0 0 0 0 0 0 0 0 0 0 0 0 0 0 0 0 0 0 0 0 0 0 0 0 0 0 0 0
0 0 0 0 0 0 0 0 0 0 0 0 0 0 0 0 0 0 0 0 0 0 0 0 0 0 0 0 0 0 0 0 0 0 0 0 0 0 0 0 0 0 0 0
Wind_Speed
6 5 3 5 6 7 8 9 10 10 10 13 10 10 9 7 6 6 6 6 8 8 7 7 6 6 6 6 5 4 5 5 6 5 4 4 4 4 3 3 4 3 3 3
4 4 4 5 8 8 9 7 8 8 11 12 8 4 5 7 8 8 9 9 9 8 8 8 8 7 6 6 5 5 5 6 5 4 4 4 5 4 4 4 4 3 4 4
5 4 2 7 10 11 8 9 10 13 15 7 5 9 11 11 10 11 11 10 10 10 9 9 9 8 8 7 5 5 6 5 4 4 5 5 4 4 5 5 4 4 5 4
3 0 7 11 5 7 8 10 11 11 10 9 12 10 7 8 11 11 10 9 9 8 8 7 6 6 5 4 5 5 5 5 4 4 5 4 4 5 5 4 4 5 5 5
4 4 8 10 7 6 7 10 10 14 13 7 4 2 4 7 9 10 10 9 8 8 7 6 6 6 6 5 4 4 4 4 4 4 4 4 4 5 4 4 5 5 5 5
4 4 6 11 6 3 3 8 8 9 11 7 9 5 9 7 8 8 7 6 6 6 6 6 5 7 7 5 4 4 4 3 3 3 3 4 4 4 3 3 4 4 5 5
5 5 10 11 4 4 3 9 6 4 7 10 12 10 6 7 7 7 7 6 7 7 6 6 6 8 7 5 4 4 2 1 1 1 2 2 2 1 2 2 3 3 4 4
5 5 11 5 4 6 8 6 5 4 6 10 10 4 4 8 9 9 7 7 7 8 6 5 6 8 7 5 4 3 3 3 2 1 1 1 0 1 1 1 2 3 3 4
10 10 6 2 6 7 5 6 7 5 6 8 7 6 7 7 8 9 9 8 7 8 7 5 5 7 8 5 4 5 5 4 3 3 2 2 2 2 2 2 1 2 2 3
5 9 8 7 6 6 5 7 8 7 6 6 8 8 8 8 8 8 8 8 8 9 9 6 5 5 6 5 6 6 6 4 3 3 3 4 3 3 2 2 2 2 3 3
7 9 10 7 5 6 7 8 7 6 4 7 8 8 10 10 10 10 8 8 9 10 10 8 6 6 5 6 7 7 6 5 4 4 4 3 3 3 3 3 3 2 2 2
8 7 6 12 11 9 10 11 9 7 6 5 8 10 10 11 10 10 10 9 9 9 10 9 8 7 6 6 7 8 6 4 3 3 3 3 3 4 7 6 10 12 10 6
8 9 8 11 12 10 10 12 11 9 9 9 8 8 10 9 9 10 11 12 12 12 11 10 9 7 6 6 7 8 7 5 4 3 3 3 3 3 3 5 8 10 13 13
6 7 9 9 11 13 12 12 11 10 9 8 7 7 8 8 9 12 14 13 12 12 11 10 10 8 6 7 8 8 7 7 6 4 3 3 3 3 2 2 3 4 7 11
9 8 9 12 12 12 11 10 11 11 9 7 6 7 10 12 14 14 12 12 13 12 11 11 10 8 7 8 9 8 7 5 4 4 3 3 3 3 3 3 2 2 3 5
13 11 9 10 12 13 13 11 11 13 11 9 8 10 12 12 11 11 14 16 17 16 14 12 11 9 8 9 9 7 6 11 8 5 4 3 3 3 2 2 2 2 2 2
11 12 13 15 15 15 14 13 12 13 12 11 10 8 9 10 11 13 13 12 13 13 13 13 11 9 9 9 9 6 5 7 11 6 4 3 3 2 2 1 1 0 1 2
9 10 11 12 14 16 17 15 13 12 12 11 7 8 13 16 17 16 15 13 12 10 9 10 11 10 9 9 7 6 6 5 5 4 4 3 3 2 2 1 1 1 1 2
12 13 13 13 13 14 15 14 14 13 11 7 8 12 14 14 14 16 17 17 17 15 11 10 18 12 9 10 11 6 6 6 5 4 3 4 3 2 2 1 1 1 2 2
13 14 15 16 15 14 14 14 13 11 8 6 7 9 10 11 14 17 17 15 12 11 13 14 13 10 9 10 12 6 6 6 5 4 3 3 3 2 2 1 2 2 2 2
13 15 16 16 17 16 14 13 11 10 7 5 8 11 12 13 15 16 15 10 7 11 15 18 11 8 8 10 11 6 6 6 5 4 4 3 3 2 2 2 2 2 2 2
11 12 15 15 15 15 14 12 10 9 5 3 4 7 10 12 13 11 9 9 12 17 12 9 8 12 13 13 6 6 6 5 5 4 4 3 3 3 2 2 2 2 2 3
10 11 13 13 13 14 13 10 9 7 4 2 4 8 10 11 11 12 9 8 11 19 12 8 13 19 18 9 6 6 6 5 5 4 4 4 3 3 3 2 2 2 3 3
10 11 12 12 11 11 11 10 8 6 4 2 2 5 8 8 5 4 7 17 19 18 9 12 18 20 16 6 6 5 5 5 4 4 4 3 3 2 2 2 2 3 3 4
10 10 10 10 9 8 8 8 7 5 4 3 3 4 3 4 6 8 9 12 18 16 8 14 20 18 9 6 6 5 5 5 5 4 4 3 3 2 2 2 2 3 3 4
9 8 8 8 7 6 6 4 3 3 1 2 2 3 3 4 7 8 8 10 13 14 9 6 8 10 6 6 6 5 5 5 4 4 4 3 3 2 2 2 3 3 3 4
8 7 6 6 5 4 4 3 2 2 1 2 2 2 4 5 6 7 9 8 8 8 7 6 6 6 6 6 5 5 5 4 4 4 3 3 2 2 2 2 2 3 3 4
Wind_Direction
235 237 212 228 221 185 192 197 200 230 231 250 243 231 229 218 205 196 201 201 202 205 208 209 214 218 220 227 221 202 200 216 230 234 233 237 240 241 243 246 248 249 260 272
271 260 226 250 250 218 219 217 222 243 257 248 245 227 223 211 196 201 209 209 208 207 205 207 211 213 214 222 215 194 206 225 232 228 231 236 239 239 242 249 255 253 255 261
255 290 3 271 235 216 214 207 193 220 240 237 212 215 216 208 198 204 208 207 205 204 203 206 207 203 207 213 198 194 214 228 227 224 232 237 236 235 240 244 247 255 258 254
215 343 246 247 239 213 224 240 216 228 239 215 214 221 220 200 194 205 205 203 205 202 201 203 198 193 193 181 183 198 216 230 230 225 236 240 235 241 244 241 242 249 256 254
153 219 271 290 271 201 206 263 230 225 238 228 199 126 271 213 196 202 199 195 195 190 185 180 181 176 159 165 173 187 213 229 231 220 228 234 239 247 244 241 249 247 251 253
148 190 244 253 256 183 144 278 260 215 225 185 138 174 242 207 188 197 189 179 172 161 152 159 168 151 147 159 163 193 216 228 228 210 215 229 242 251 247 240 254 260 262 253
177 213 258 256 264 131 180 250 279 218 204 173 186 205 208 160 171 173 168 163 152 146 151 164 154 144 147 153 178 202 193 173 152 188 210 228 251 261 268 269 277 278 279 278
158 185 251 257 139 181 228 273 290 259 206 196 213 197 152 164 166 159 152 147 145 142 144 145 146 145 146 164 180 152 131 115 93 66 52 68 57 339 335 319 311 307 306 306
191 214 235 223 218 247 262 275 277 269 249 207 201 197 185 176 169 163 158 153 146 141 135 132 147 149 150 166 150 131 114 103 87 70 55 48 57 34 19 15 356 330 327 319
261 271 271 268 262 269 263 256 271 267 254 209 202 195 184 175 171 164 159 156 147 142 140 141 143 142 147 144 135 123 115 105 90 79 60 47 48 49 49 28 13 358 349 332
274 284 308 306 302 307 305 296 292 287 248 219 207 195 185 181 179 172 162 156 154 153 150 149 144 138 140 140 131 120 114 106 93 83 78 63 55 53 53 43 50 40 357 341
258 275 285 292 306 317 309 303 298 293 285 251 210 205 190 187 180 170 163 155 153 150 147 148 144 140 141 142 135 127 120 114 106 97 83 76 75 57 45 54 51 52 48 43
265 292 281 283 300 306 299 295 294 280 265 257 235 207 191 184 174 165 161 162 162 158 153 149 145 143 145 141 133 129 130 128 116 107 100 91 83 87 61 21 29 37 36 37
308 316 302 302 301 306 303 299 296 285 270 251 235 205 186 172 164 170 174 169 157 150 149 149 146 147 150 140 130 127 127 129 125 117 112 105 99 92 87 73 33 1 7 23
324 312 288 293 301 305 306 307 303 294 284 266 227 199 185 180 181 179 165 151 147 147 151 151 149 152 151 141 134 133 130 128 125 120 114 110 105 97 87 77 64 18 357 4
315 313 311 316 315 312 312 307 297 288 281 264 234 212 200 189 173 157 156 157 157 161 161 157 156 157 151 142 134 133 138 142 136 128 120 114 110 106 98 86 66 36 13 348
321 325 326 322 317 311 305 297 287 281 277 262 241 214 179 158 153 158 164 165 160 156 157 156 155 153 150 145 139 138 135 142 139 129 129 132 130 131 133 128 117 17 316 321
299 298 297 295 299 302 302 300 294 286 276 267 237 185 173 171 172 169 161 149 140 140 151 152 150 148 147 145 140 138 135 135 138 140 140 142 145 151 154 162 193 256 291 318
320 318 315 312 308 302 299 299 297 291 281 257 208 193 188 182 170 159 154 153 155 159 165 161 157 149 147 156 147 138 138 138 138 141 145 148 145 154 167 186 220 254 272 288
322 323 321 318 317 313 307 305 304 298 285 246 207 188 177 170 160 158 159 163 167 159 154 157 150 148 151 159 150 140 143 145 147 150 152 156 163 174 187 208 231 255 270 276
320 321 321 321 320 318 314 311 308 301 292 240 201 189 177 165 160 158 156 153 150 143 152 155 150 150 151 156 151 141 144 147 152 158 162 167 174 183 201 224 245 257 265 272
314 316 317 318 320 319 317 316 314 309 301 258 200 169 157 156 157 155 154 151 152 153 149 147 149 158 161 153 143 145 149 152 155 159 166 173 180 192 211 227 242 255 262 267
308 310 312 314 317 316 316 321 326 321 307 251 179 167 163 159 158 153 147 144 151 155 147 151 162 163 158 148 145 149 153 157 162 168 174 180 187 195 210 230 242 254 265 272
307 308 309 311 316 321 324 329 335 334 331 346 141 151 148 142 130 116 126 150 156 150 148 160 165 163 154 145 148 150 156 161 165 170 174 179 186 197 213 229 247 260 268 278
301 304 306 312 318 318 317 325 340 350 359 29 68 99 120 135 139 138 140 148 154 147 148 165 165 160 150 146 152 156 161 169 170 169 173 176 186 199 216 231 247 261 271 276
293 296 296 295 296 300 307 316 328 334 357 64 66 74 93 106 121 131 136 140 147 149 148 149 152 150 146 151 155 159 162 167 166 164 169 174 185 197 219 242 264 268 275 279
286 287 290 294 297 300 306 306 306 302 261 149 118 108 119 126 131 133 134 137 140 143 142 141 140 143 147 150 152 154 154 155 156 160 166 172 183 202 228 252 264 275 282 287